TimePST,TemperatureF,Dew PointF,Humidity,Sea Level PressureIn,VisibilityMPH,Wind Direction,Wind SpeedMPH,Gust SpeedMPH,PrecipitationIn,Events,Conditions,WindDirDegrees,DateUTC
12:15 AM,55.4,53.6,94,30.07,4.0,SE,12.7,-,0.02,,Overcast,140,2012-11-21 08:15:00
12:35 AM,55.4,53.6,94,30.06,5.0,SE,11.5,-,0.03,,Overcast,140,2012-11-21 08:35:00
12:55 AM,55.4,53.6,94,30.06,5.0,SE,17.3,20.7,N/A,,Overcast,140,2012-11-21 08:55:00
1:15 AM,55.4,53.6,94,30.05,7.0,SE,15.0,-,N/A,,Overcast,140,2012-11-21 09:15:00
1:35 AM,55.4,53.6,94,30.06,7.0,SE,9.2,-,0.01,,Overcast,140,2012-11-21 09:35:00
1:55 AM,55.4,53.6,94,30.06,7.0,SSE,6.9,-,N/A,,Overcast,160,2012-11-21 09:55:00
2:15 AM,55.4,53.6,94,30.06,10.0,SE,15.0,-,0.01,,Overcast,140,2012-11-21 10:15:00
2:35 AM,55.4,53.6,94,30.06,7.0,SE,12.7,-,0.02,,Overcast,140,2012-11-21 10:35:00
2:55 AM,55.4,53.6,94,30.05,10.0,SE,10.4,-,N/A,,Overcast,130,2012-11-21 10:55:00
3:15 AM,55.4,53.6,94,30.05,7.0,SE,13.8,-,0.01,,Overcast,140,2012-11-21 11:15:00
3:55 AM,55.4,53.6,94,30.05,5.0,SE,13.8,-,0.01,,Overcast,130,2012-11-21 11:55:00
4:15 AM,55.4,53.6,94,30.05,5.0,ESE,10.4,-,0.01,,Overcast,120,2012-11-21 12:15:00
4:35 AM,55.4,53.6,94,30.05,7.0,ESE,10.4,16.1,0.02,,Overcast,120,2012-11-21 12:35:00
4:55 AM,55.4,53.6,94,30.06,7.0,SE,10.4,-,N/A,,Overcast,130,2012-11-21 12:55:00
5:15 AM,55.4,53.6,94,30.07,5.0,SE,12.7,16.1,0.01,,Overcast,140,2012-11-21 13:15:00
5:35 AM,55.4,53.6,94,30.06,7.0,SE,11.5,-,0.02,,Overcast,130,2012-11-21 13:35:00
5:55 AM,55.4,53.6,94,30.07,10.0,SE,10.4,-,N/A,,Overcast,140,2012-11-21 13:55:00
6:15 AM,55.4,53.6,94,30.08,5.0,SE,9.2,-,0.01,,Overcast,130,2012-11-21 14:15:00
6:35 AM,55.4,53.6,94,30.08,7.0,SE,10.4,-,0.02,,Overcast,130,2012-11-21 14:35:00
6:55 AM,55.4,53.6,94,30.09,10.0,SE,10.4,-,N/A,,Overcast,140,2012-11-21 14:55:00
7:15 AM,55.4,53.6,94,30.11,4.0,SSE,10.4,-,0.01,,Overcast,160,2012-11-21 15:15:00
7:35 AM,53.6,53.6,100,30.11,3.0,SSE,11.5,-,0.01,,Overcast,160,2012-11-21 15:35:00
8:15 AM,55.4,53.6,94,30.12,7.0,SSE,9.2,-,0.01,,Overcast,150,2012-11-21 16:15:00
8:35 AM,55.4,53.6,94,30.13,7.0,SSE,10.4,-,0.02,,Overcast,160,2012-11-21 16:35:00
9:15 AM,55.4,53.6,94,30.14,4.0,SSE,13.8,-,0.01,,Overcast,150,2012-11-21 17:15:00
9:35 AM,55.4,53.6,94,30.14,10.0,SSE,17.3,-,0.02,,Overcast,150,2012-11-21 17:35:00
9:55 AM,55.4,53.6,94,30.15,10.0,SSE,15.0,19.6,N/A,,Overcast,150,2012-11-21 17:55:00
10:15 AM,55.4,53.6,94,30.16,7.0,SSE,13.8,20.7,0.01,,Overcast,150,2012-11-21 18:15:00
10:35 AM,55.4,53.6,94,30.16,7.0,SSE,13.8,-,0.02,,Overcast,150,2012-11-21 18:35:00
10:55 AM,57.2,53.6,88,30.16,7.0,SSE,16.1,19.6,N/A,,Overcast,160,2012-11-21 18:55:00
11:15 AM,57.2,53.6,88,30.16,10.0,SSE,13.8,19.6,0.01,,Overcast,150,2012-11-21 19:15:00
11:35 AM,59.0,53.6,82,30.16,7.0,SSE,10.4,-,0.02,,Overcast,160,2012-11-21 19:35:00
11:55 AM,59.0,53.6,82,30.15,7.0,SSE,12.7,-,N/A,,Overcast,160,2012-11-21 19:55:00
12:15 PM,59.0,53.6,82,30.15,10.0,SSE,11.5,-,0.01,,Overcast,150,2012-11-21 20:15:00
12:35 PM,60.8,53.6,77,30.14,10.0,SSE,9.2,-,0.02,,Mostly Cloudy,150,2012-11-21 20:35:00
12:55 PM,60.8,53.6,77,30.14,10.0,SSE,8.1,-,N/A,,Overcast,150,2012-11-21 20:55:00
1:15 PM,60.8,53.6,77,30.14,10.0,SSE,8.1,-,0.02,,Mostly Cloudy,160,2012-11-21 21:15:00
1:55 PM,62.6,51.8,68,30.14,10.0,SSE,5.8,-,N/A,,Scattered Clouds,160,2012-11-21 21:55:00
2:15 PM,62.6,51.8,68,30.14,10.0,SSE,6.9,-,0.01,,Clear,150,2012-11-21 22:15:00
2:35 PM,62.6,51.8,68,30.14,10.0,ESE,5.8,-,0.02,,Mostly Cloudy,120,2012-11-21 22:35:00
2:55 PM,62.6,51.8,68,30.13,10.0,SSE,8.1,-,N/A,,Scattered Clouds,150,2012-11-21 22:55:00
3:15 PM,62.6,51.8,68,30.13,10.0,ESE,6.9,-,0.01,,Clear,110,2012-11-21 23:15:00
3:35 PM,62.6,51.8,68,30.13,10.0,SE,5.8,-,0.02,,Scattered Clouds,140,2012-11-21 23:35:00
3:55 PM,62.6,51.8,68,30.14,10.0,SE,6.9,-,0.01,,Mostly Cloudy,130,2012-11-21 23:55:00
4:15 PM,60.8,51.8,72,30.14,10.0,SSE,6.9,-,0.01,,Mostly Cloudy,150,2012-11-22 00:15:00
4:35 PM,60.8,51.8,72,30.14,10.0,ESE,4.6,-,0.02,,Scattered Clouds,110,2012-11-22 00:35:00
4:55 PM,59.0,51.8,77,30.14,10.0,ESE,4.6,-,N/A,,Scattered Clouds,110,2012-11-22 00:55:00
5:15 PM,59.0,51.8,77,30.14,10.0,ESE,5.8,-,0.01,,Scattered Clouds,120,2012-11-22 01:15:00
5:35 PM,57.2,50.0,77,30.14,10.0,ESE,4.6,-,0.03,,Scattered Clouds,120,2012-11-22 01:35:00
5:55 PM,57.2,51.8,82,30.15,10.0,SE,3.5,-,N/A,,Mostly Cloudy,130,2012-11-22 01:55:00
6:15 PM,55.4,51.8,88,30.16,10.0,ESE,3.5,-,0.03,,Overcast,110,2012-11-22 02:15:00
6:35 PM,55.4,51.8,88,30.16,10.0,East,4.6,-,0.05,,Overcast,80,2012-11-22 02:35:00
6:55 PM,55.4,51.8,88,30.16,10.0,ESE,4.6,-,0.01,,Overcast,110,2012-11-22 02:55:00
7:15 PM,53.6,50.0,88,30.16,7.0,NE,6.9,-,0.02,,Overcast,50,2012-11-22 03:15:00
7:35 PM,51.8,50.0,94,30.17,10.0,ENE,4.6,-,0.04,,Scattered Clouds,70,2012-11-22 03:35:00
7:55 PM,51.8,50.0,94,30.17,10.0,ENE,4.6,-,N/A,,Clear,60,2012-11-22 03:55:00
8:15 PM,51.8,50.0,94,30.17,10.0,NW,3.5,-,N/A,,Clear,310,2012-11-22 04:15:00
8:35 PM,50.0,48.2,94,30.18,10.0,North,3.5,-,N/A,,Clear,10,2012-11-22 04:35:00
8:55 PM,50.0,48.2,94,30.18,10.0,NE,4.6,-,N/A,,Clear,40,2012-11-22 04:55:00
9:15 PM,50.0,48.2,94,30.18,10.0,NE,4.6,-,0.01,,Clear,40,2012-11-22 05:15:00
9:35 PM,48.2,46.4,93,30.19,10.0,NE,4.6,-,0.01,,Clear,40,2012-11-22 05:35:00
9:55 PM,48.2,46.4,93,30.19,10.0,NNE,3.5,-,N/A,,Clear,30,2012-11-22 05:55:00
10:15 PM,46.4,46.4,100,30.19,10.0,NNE,3.5,-,N/A,,Clear,30,2012-11-22 06:15:00
10:35 PM,46.4,44.6,93,30.19,10.0,NE,5.8,-,N/A,,Clear,50,2012-11-22 06:35:00
11:15 PM,44.6,44.6,100,30.18,5.0,Calm,Calm,-,N/A,,Clear,0,2012-11-22 07:15:00
11:35 PM,44.6,42.8,93,30.18,1.0,Calm,Calm,-,N/A,,Unknown,0,2012-11-22 07:35:00
11:55 PM,44.6,44.6,100,30.18,0.5,Calm,Calm,-,N/A,,Unknown,0,2012-11-22 07:55:00